カタログに戻る

SL-8 DEB

運用中LEO
NORAD 20434·DEBRIS·🇷🇺 Russia

打ち上げ Jan 18, 1990 から Plesetsk Cosmodrome

Loading…

次のパス (今後24時間)

TLE

最新Source: Space-Track

元期: Sep 14, 2026, 13:41 UTC

1 20434U 90004C   26257.57065076  .00000882  00000-0  23318-3 0  9992
2 20434  74.0420 186.6495 0012529  68.5328 106.2525 14.50273883923121

AllMySatでSL-8 DEBをリアルタイム追跡

Download on the App Store